Meridianville, AL

11:36 AM CDT on July 27, 2016 (GMT -0500)
Huntsville Madison

Weather History for KMDQ - April, 2014

Change the Weather History Date:

Wednesday, April 9, 2014

  Actual Average (KHSV) Record (KHSV)
Temperature  
Mean Temperature 52 °F 60 °F  
Max Temperature 66 °F 72 °F 89 °F (2011)
Min Temperature 39 °F 48 °F 28 °F (1914)
Degree Days  
Heating Degree Days 12 6  
Month to date heating degree days 66  
Since 1 July heating degree days 2886  
Cooling Degree Days 0 1  
Month to date cooling degree days 9  
Year to date cooling degree days 23  
Growing Degree Days 2 (Base 50)    
Moisture  
Dew Point 35 °F    
Average Humidity 56    
Maximum Humidity 93    
Minimum Humidity 20    
Precipitation  
Precipitation 0.00 in 0.14 in 1.85 in (1969)
Month to date precipitation 1.32  
Year to date precipitation 16.26  
Snow  
Snow 0.00 in - - ()
Month to date snowfall  
Since 1 July snowfall  
Snow Depth -    
Sea Level Pressure  
Sea Level Pressure 30.08 in    
Wind  
Wind Speed 1 mph (WNW)    
Max Wind Speed 12 mph    
Max Gust Speed 18 mph    
Visibility 10 miles    
Events      
T = Trace of Precipitation, MM = Missing Value Source: NWS Daily Summary

Daily Weather History Graph

Daily Weather History Graph

Search for Another Location

Airport or City:

Trip Planner

Search our weather history database for the weather conditions in past years. The results will help you decide how hot, cold, wet, or windy it might be!

Date:

Astronomy

Apr. 09, 2014 Rise Set
Actual Time 6:22 AM CDT 7:13 PM CDT
Civil Twilight 5:56 AM CDT 7:39 PM CDT
Nautical Twilight 5:26 AM CDT 8:10 PM CDT
Astronomical Twilight 4:54 AM CDT 8:41 PM CDT
Moon 2:13 PM CDT (4/9) 2:58 AM CDT (4/9)
Length of Visible Light 13h 43m
Length of Day
12h 51m
Waxing Gibbous, 72% of the Moon is Illuminated
Apr 9
Waxing Gibbous
Apr 15
Full
Apr 22
Last Quarter
Apr 29
New
May 6
First Quarter

Hourly Weather History & Observations

Time (CDT) Temp. Dew Point Humidity Pressure Visibility Wind Dir Wind Speed Gust Speed Precip Events Conditions
12:15 AM 50.0 °F 42.8 °F 76% 29.92 in 10.0 mi Calm Calm - N/A   Overcast
12:35 AM 50.0 °F 42.8 °F 76% 29.93 in 10.0 mi Calm Calm - N/A   Overcast
12:55 AM 50.0 °F 42.8 °F 76% 29.94 in 10.0 mi Calm Calm - N/A   Overcast
1:15 AM 48.2 °F 42.8 °F 82% 29.94 in 10.0 mi WNW 6.9 mph - N/A   Scattered Clouds
1:35 AM 48.2 °F 41.0 °F 76% 29.94 in 10.0 mi WNW 6.9 mph - N/A   Scattered Clouds
1:55 AM 48.2 °F 41.0 °F 76% 29.94 in 10.0 mi Calm Calm - N/A   Mostly Cloudy
2:15 AM 48.2 °F 41.0 °F 76% 29.94 in 10.0 mi Calm Calm - N/A   Overcast
2:35 AM 46.4 °F 41.0 °F 81% 29.95 in 10.0 mi Calm Calm - N/A   Overcast
2:55 AM 46.4 °F 41.0 °F 81% 29.96 in 10.0 mi Calm Calm - N/A   Scattered Clouds
3:15 AM 46.4 °F 39.2 °F 76% 29.96 in 10.0 mi Calm Calm - N/A   Scattered Clouds
3:35 AM 46.4 °F 39.2 °F 76% 29.96 in 10.0 mi Calm Calm - N/A   Clear
3:55 AM 44.6 °F 39.2 °F 81% 29.97 in 10.0 mi Calm Calm - N/A   Clear
4:15 AM 44.6 °F 39.2 °F 81% 29.97 in 10.0 mi Calm Calm - N/A   Clear
4:35 AM 44.6 °F 41.0 °F 87% 29.97 in 10.0 mi Calm Calm - N/A   Clear
4:55 AM 42.8 °F 39.2 °F 87% 29.98 in 7.0 mi Calm Calm - N/A   Clear
5:15 AM 41.0 °F 37.4 °F 87% 29.99 in 10.0 mi Calm Calm - N/A   Clear
5:35 AM 41.0 °F 37.4 °F 87% 30.00 in 1.8 mi Calm Calm - N/A   Mist
5:55 AM 41.0 °F 37.4 °F 87% 30.01 in 0.8 mi Calm Calm - N/A   Mist
6:15 AM 41.0 °F 37.4 °F 87% 30.03 in 7.0 mi Calm Calm - N/A   Clear
6:35 AM 41.0 °F 37.4 °F 87% 30.04 in 10.0 mi Calm Calm - N/A   Clear
6:55 AM 39.2 °F 35.6 °F 87% 30.06 in 5.0 mi Calm Calm - N/A   Clear
7:15 AM 41.0 °F 37.4 °F 87% 30.06 in 7.0 mi Calm Calm - N/A   Clear
7:35 AM 42.8 °F 41.0 °F 93% 30.07 in 10.0 mi Calm Calm - N/A   Clear
7:55 AM 46.4 °F 41.0 °F 81% 30.09 in 10.0 mi Calm Calm - N/A   Clear
8:15 AM 48.2 °F 39.2 °F 71% 30.10 in 10.0 mi Calm Calm - N/A   Clear
8:35 AM 50.0 °F 39.2 °F 66% 30.11 in 10.0 mi Calm Calm - N/A   Clear
8:55 AM 51.8 °F 37.4 °F 58% 30.12 in 10.0 mi Calm Calm - N/A   Clear
9:15 AM 51.8 °F 39.2 °F 62% 30.12 in 10.0 mi Calm Calm - N/A   Clear
9:35 AM 53.6 °F 37.4 °F 54% 30.13 in 10.0 mi Calm Calm - N/A   Clear
9:55 AM 53.6 °F 37.4 °F 54% 30.14 in 10.0 mi North 5.8 mph - N/A   Clear
10:15 AM 55.4 °F 37.4 °F 51% 30.15 in 10.0 mi Calm Calm - N/A   Clear
10:35 AM 55.4 °F 37.4 °F 51% 30.15 in 10.0 mi North 8.1 mph - N/A   Clear
10:55 AM 59.0 °F 35.6 °F 42% 30.15 in 10.0 mi Calm Calm - N/A   Clear
11:15 AM 59.0 °F 33.8 °F 39% 30.15 in 10.0 mi Calm Calm - N/A   Scattered Clouds
11:35 AM 59.0 °F 33.8 °F 39% 30.15 in 10.0 mi NNW 9.2 mph 16.1 mph N/A   Mostly Cloudy
11:55 AM 59.0 °F 30.2 °F 34% 30.14 in 10.0 mi NNW 10.4 mph 16.1 mph N/A   Scattered Clouds
12:15 PM 60.8 °F 32.0 °F 34% 30.14 in 10.0 mi Calm Calm - N/A   Clear
12:35 PM 60.8 °F 30.2 °F 31% 30.13 in 10.0 mi Calm Calm - N/A   Clear
12:55 PM 62.6 °F 28.4 °F 27% 30.13 in 10.0 mi NNW 8.1 mph - N/A   Clear
1:15 PM 60.8 °F 28.4 °F 29% 30.13 in 10.0 mi Calm Calm - N/A   Clear
1:35 PM 62.6 °F 30.2 °F 30% 30.12 in 10.0 mi Calm Calm - N/A   Scattered Clouds
1:55 PM 62.6 °F 28.4 °F 27% 30.13 in 10.0 mi Calm Calm - N/A   Scattered Clouds
2:15 PM 64.4 °F 30.2 °F 28% 30.12 in 10.0 mi Calm Calm - N/A   Scattered Clouds
2:55 PM 64.4 °F 28.4 °F 26% 30.11 in 10.0 mi Calm Calm - N/A   Scattered Clouds
3:15 PM 64.4 °F 26.6 °F 24% 30.10 in 10.0 mi Calm Calm - N/A   Scattered Clouds
3:35 PM 66.2 °F 28.4 °F 24% 30.10 in 10.0 mi West 10.4 mph - N/A   Scattered Clouds
3:55 PM 64.4 °F 24.8 °F 22% 30.10 in 10.0 mi NW 6.9 mph 18.4 mph N/A   Scattered Clouds
4:15 PM 64.4 °F 26.6 °F 24% 30.10 in 10.0 mi WSW 11.5 mph 16.1 mph N/A   Scattered Clouds
4:35 PM 64.4 °F 26.6 °F 24% 30.10 in 10.0 mi West 6.9 mph - N/A   Clear
4:55 PM 64.4 °F 24.8 °F 22% 30.09 in 10.0 mi NW 8.1 mph - N/A   Clear
5:15 PM 64.4 °F 26.6 °F 24% 30.09 in 10.0 mi WSW 3.5 mph - N/A   Clear
5:35 PM 64.4 °F 23.0 °F 21% 30.09 in 10.0 mi Calm Calm - N/A   Clear
5:55 PM 64.4 °F 23.0 °F 21% 30.10 in 10.0 mi Calm Calm - N/A   Clear
6:15 PM 62.6 °F 21.2 °F 20% 30.10 in 10.0 mi West 5.8 mph - N/A   Clear
6:35 PM 62.6 °F 23.0 °F 22% 30.10 in 10.0 mi Calm Calm - N/A   Clear
6:55 PM 60.8 °F 30.2 °F 31% 30.10 in 10.0 mi SW 6.9 mph - N/A   Clear
7:15 PM 59.0 °F 30.2 °F 34% 30.11 in 10.0 mi WSW 6.9 mph - N/A   Clear
7:35 PM 55.4 °F 32.0 °F 41% 30.12 in 10.0 mi Calm Calm - N/A   Clear
7:55 PM 55.4 °F 32.0 °F 41% 30.12 in 10.0 mi Calm Calm - N/A   Clear
8:15 PM 53.6 °F 32.0 °F 44% 30.12 in 10.0 mi Calm Calm - N/A   Clear
8:35 PM 53.6 °F 32.0 °F 44% 30.13 in 10.0 mi Calm Calm - N/A   Clear
8:55 PM 53.6 °F 32.0 °F 44% 30.14 in 10.0 mi Calm Calm - N/A   Clear
9:15 PM 51.8 °F 32.0 °F 47% 30.14 in 10.0 mi Calm Calm - N/A   Clear
9:35 PM 53.6 °F 32.0 °F 44% 30.15 in 10.0 mi Calm Calm - N/A   Clear
9:55 PM 48.2 °F 35.6 °F 62% 30.15 in 10.0 mi Calm Calm - N/A   Clear
10:15 PM 48.2 °F 35.6 °F 62% 30.15 in 10.0 mi Calm Calm - N/A   Clear
10:35 PM 46.4 °F 39.2 °F 76% 30.15 in 10.0 mi Calm Calm - N/A   Clear
10:55 PM 44.6 °F 39.2 °F 81% 30.15 in 10.0 mi Calm Calm - N/A   Clear
11:15 PM 44.6 °F 37.4 °F 76% 30.15 in 10.0 mi Calm Calm - N/A   Clear
11:35 PM 44.6 °F 37.4 °F 76% 30.16 in 10.0 mi Calm Calm - N/A   Clear
11:55 PM 42.8 °F 37.4 °F 81% 30.15 in 10.0 mi Calm Calm - N/A   Clear